Location: Bakhuizen
(52.8696°N, 5.4575°E)
Time: 05:06:38
(UTC+00:00)

Nimbus 7 Rocket - Pass Details

Date: 28 September 2021
Orbit: 922 x 965 km, 99.4° (Epoch: 17 October)

Event Time Altitude Azimuth Distance (km) Brightness Sun altitude
Rises 00:47:26 0° 13° (NNE) 3,584 8.4 -36.6°
Reaches altitude 10° 00:50:01 10° 5° (N) 2,640 7.4 -36.5°
Enters shadow 00:53:35 30° 336° (NNW) 1,600 5.8 -36.2°
